Time,TemperatureF,DewpointF,PressureIn,WindDirection,WindDirectionDegrees,WindSpeedMPH,WindSpeedGustMPH,Humidity,HourlyPrecipIn,Conditions,Clouds,dailyrainin,SoftwareType,DateUTC
2013-05-29 00:01:00,70.2,68.7,29.76,WSW,256,4.0,12.0,95,0.08,,,0.90,meteohub,2013-05-29 04:01:00,
2013-05-29 00:02:00,70.2,68.7,29.77,WSW,248,7.0,12.0,95,0.08,,,0.90,meteohub,2013-05-29 04:02:00,
2013-05-29 00:07:00,70.2,68.4,29.77,West,271,15.0,15.0,94,0.08,,,0.90,meteohub,2013-05-29 04:07:00,
2013-05-29 00:13:00,70.2,67.6,29.78,SW,236,12.0,12.0,92,0.08,,,0.01,meteohub,2013-05-29 04:13:00,
2013-05-29 00:18:00,70.0,67.5,29.78,SW,226,12.0,12.0,92,0.08,,,0.01,meteohub,2013-05-29 04:18:00,
2013-05-29 00:23:00,69.6,66.9,29.79,WSW,253,8.0,12.0,91,0.12,,,0.01,meteohub,2013-05-29 04:23:00,
2013-05-29 00:28:00,69.3,66.9,29.79,SW,228,10.0,20.0,92,0.12,,,0.01,meteohub,2013-05-29 04:28:00,
2013-05-29 00:33:00,68.9,66.6,29.79,SSW,212,9.0,20.0,92,0.12,,,0.01,meteohub,2013-05-29 04:33:00,
2013-05-29 00:38:00,68.7,66.4,29.79,SSW,210,7.0,20.0,92,0.12,,,0.01,meteohub,2013-05-29 04:38:00,
2013-05-29 00:43:00,68.4,65.7,29.78,SSW,210,7.0,20.0,91,0.12,,,0.01,meteohub,2013-05-29 04:43:00,
2013-05-29 00:48:00,68.2,65.5,29.79,SSW,212,7.0,20.0,91,0.12,,,0.01,meteohub,2013-05-29 04:48:00,
2013-05-29 00:53:00,67.6,64.9,29.78,WSW,239,5.0,20.0,91,0.12,,,0.13,meteohub,2013-05-29 04:53:00,
2013-05-29 00:58:00,67.3,64.6,29.78,SSW,205,4.0,20.0,91,0.12,,,0.13,meteohub,2013-05-29 04:58:00,
2013-05-29 01:03:00,67.1,64.4,29.77,SSW,197,7.0,20.0,91,0.14,,,0.13,meteohub,2013-05-29 05:03:00,
2013-05-29 01:08:00,66.9,63.9,29.76,South,177,9.0,15.0,90,0.14,,,0.13,meteohub,2013-05-29 05:08:00,
2013-05-29 01:13:00,66.7,63.7,29.76,SSW,207,7.0,15.0,90,0.14,,,0.13,meteohub,2013-05-29 05:13:00,
2013-05-29 01:18:00,66.7,63.3,29.76,SW,222,5.0,15.0,89,0.14,,,0.13,meteohub,2013-05-29 05:18:00,
2013-05-29 01:23:00,66.6,63.1,29.74,SE,138,3.0,15.0,89,0.14,,,0.15,meteohub,2013-05-29 05:23:00,
2013-05-29 01:28:00,66.4,63.3,29.73,SE,124,6.0,15.0,90,0.14,,,0.15,meteohub,2013-05-29 05:28:00,
2013-05-29 01:33:00,66.4,63.3,29.72,SE,134,6.0,10.0,90,0.07,,,0.15,meteohub,2013-05-29 05:33:00,
2013-05-29 01:38:00,66.2,63.1,29.74,WSW,239,3.0,10.0,90,0.07,,,0.15,meteohub,2013-05-29 05:38:00,
2013-05-29 01:43:00,66.0,63.3,29.76,NW,318,4.0,10.0,91,0.07,,,0.15,meteohub,2013-05-29 05:43:00,
2013-05-29 01:48:00,65.5,63.1,29.78,WNW,287,4.0,10.0,92,0.07,,,0.15,meteohub,2013-05-29 05:48:00,
2013-05-29 01:53:00,65.3,63.0,29.78,NW,326,1.0,10.0,92,0.07,,,0.15,meteohub,2013-05-29 05:53:00,
2013-05-29 01:58:00,65.1,63.0,29.78,West,277,3.0,9.0,93,0.01,,,0.15,meteohub,2013-05-29 05:58:00,
2013-05-29 02:03:00,64.9,62.8,29.78,West,278,2.0,9.0,93,0.01,,,0.15,meteohub,2013-05-29 06:03:00,
2013-05-29 02:08:00,64.9,62.8,29.77,WNW,295,3.0,9.0,93,0.01,,,0.15,meteohub,2013-05-29 06:08:00,
2013-05-29 02:14:00,64.9,62.8,29.77,West,275,4.0,9.0,93,0.01,,,0.15,meteohub,2013-05-29 06:14:00,
2013-05-29 02:19:00,64.9,62.6,29.77,WNW,287,5.0,9.0,92,0.01,,,0.15,meteohub,2013-05-29 06:19:00,
2013-05-29 02:24:00,64.8,62.4,29.77,West,277,5.0,8.0,92,0.00,,,0.15,meteohub,2013-05-29 06:24:00,
2013-05-29 02:29:00,64.8,62.4,29.77,SW,218,6.0,8.0,92,0.00,,,0.15,meteohub,2013-05-29 06:29:00,
2013-05-29 02:34:00,64.6,62.2,29.77,West,271,7.0,8.0,92,0.00,,,0.15,meteohub,2013-05-29 06:34:00,
2013-05-29 02:39:00,64.6,62.2,29.78,SW,220,6.0,8.0,92,0.00,,,0.15,meteohub,2013-05-29 06:39:00,
2013-05-29 02:44:00,64.4,62.1,29.78,SW,236,5.0,8.0,92,0.00,,,0.15,meteohub,2013-05-29 06:44:00,
2013-05-29 02:49:00,64.2,61.9,29.77,SW,221,9.0,13.0,92,0.00,,,0.15,meteohub,2013-05-29 06:49:00,
2013-05-29 02:54:00,64.2,61.9,29.77,SW,229,6.0,13.0,92,0.00,,,0.15,meteohub,2013-05-29 06:54:00,
2013-05-29 02:59:00,64.0,61.7,29.77,SW,232,7.0,13.0,92,0.00,,,0.15,meteohub,2013-05-29 06:59:00,
2013-05-29 03:04:00,63.9,61.5,29.77,SW,222,3.0,13.0,92,0.00,,,0.15,meteohub,2013-05-29 07:04:00,
2013-05-29 03:09:00,63.7,61.3,29.76,SW,214,5.0,13.0,92,0.00,,,0.15,meteohub,2013-05-29 07:09:00,
2013-05-29 03:14:00,63.5,61.2,29.76,SSW,195,3.0,13.0,92,0.00,,,0.15,meteohub,2013-05-29 07:14:00,
2013-05-29 03:19:00,63.5,61.2,29.76,SSW,211,2.0,8.0,92,0.00,,,0.15,meteohub,2013-05-29 07:19:00,
2013-05-29 03:24:00,63.3,61.0,29.76,South,190,3.0,8.0,92,0.00,,,0.15,meteohub,2013-05-29 07:24:00,
2013-05-29 03:29:00,63.1,61.2,29.76,SE,142,4.0,8.0,93,0.00,,,0.15,meteohub,2013-05-29 07:29:00,
2013-05-29 03:35:00,63.1,61.2,29.76,SSE,150,2.0,8.0,93,0.00,,,0.15,meteohub,2013-05-29 07:35:00,
2013-05-29 03:40:00,63.1,61.2,29.76,SE,146,3.0,5.0,93,0.00,,,0.15,meteohub,2013-05-29 07:40:00,
2013-05-29 03:45:00,63.1,61.2,29.77,SSE,161,4.0,5.0,93,0.00,,,0.15,meteohub,2013-05-29 07:45:00,
2013-05-29 03:50:00,63.1,61.2,29.77,SSW,203,1.0,5.0,93,0.00,,,0.15,meteohub,2013-05-29 07:50:00,
2013-05-29 03:55:00,63.1,61.2,29.77,SSW,211,5.0,5.0,93,0.00,,,0.15,meteohub,2013-05-29 07:55:00,
2013-05-29 04:00:00,63.3,61.3,29.77,South,187,2.0,5.0,93,0.00,,,0.15,meteohub,2013-05-29 08:00:00,
2013-05-29 04:05:00,63.3,61.3,29.78,SW,226,3.0,5.0,93,0.00,,,0.15,meteohub,2013-05-29 08:05:00,
2013-05-29 04:10:00,63.3,61.3,29.78,SSE,155,2.0,5.0,93,0.00,,,0.15,meteohub,2013-05-29 08:10:00,
2013-05-29 04:15:00,63.3,61.3,29.78,SW,215,3.0,5.0,93,0.00,,,0.15,meteohub,2013-05-29 08:15:00,
2013-05-29 04:20:00,63.5,61.5,29.78,SW,221,2.0,5.0,93,0.00,,,0.15,meteohub,2013-05-29 08:20:00,
2013-05-29 04:25:00,63.5,61.5,29.78,South,183,2.0,5.0,93,0.00,,,0.15,meteohub,2013-05-29 08:25:00,
2013-05-29 04:30:00,63.5,61.5,29.78,South,186,3.0,5.0,93,0.00,,,0.15,meteohub,2013-05-29 08:30:00,
2013-05-29 04:35:00,63.7,61.7,29.78,SSW,211,2.0,5.0,93,0.00,,,0.15,meteohub,2013-05-29 08:35:00,
2013-05-29 04:40:00,63.7,61.7,29.79,SW,215,3.0,5.0,93,0.00,,,0.15,meteohub,2013-05-29 08:40:00,
2013-05-29 04:45:00,63.7,61.7,29.79,SW,233,1.0,5.0,93,0.00,,,0.15,meteohub,2013-05-29 08:45:00,
2013-05-29 04:50:00,63.7,61.7,29.79,WSW,253,1.0,5.0,93,0.00,,,0.15,meteohub,2013-05-29 08:50:00,
2013-05-29 04:55:00,63.7,61.9,29.79,SSE,166,2.0,5.0,94,0.00,,,0.15,meteohub,2013-05-29 08:55:00,
2013-05-29 05:00:00,63.9,61.9,29.79,South,181,2.0,4.0,93,0.00,,,0.15,meteohub,2013-05-29 09:00:00,
2013-05-29 05:06:00,63.9,61.9,29.80,SSW,195,5.0,5.0,93,0.00,,,0.15,meteohub,2013-05-29 09:06:00,
2013-05-29 05:11:00,64.0,62.1,29.80,South,191,4.0,4.0,93,0.00,,,0.15,meteohub,2013-05-29 09:11:00,
2013-05-29 05:16:00,64.2,62.2,29.79,SSW,205,6.0,6.0,93,0.00,,,0.15,meteohub,2013-05-29 09:16:00,
2013-05-29 05:21:00,64.6,62.4,29.79,SSW,200,5.0,5.0,93,0.00,,,0.15,meteohub,2013-05-29 09:21:00,
2013-05-29 05:26:00,64.6,62.2,29.80,SW,217,2.0,4.0,92,0.00,,,0.15,meteohub,2013-05-29 09:26:00,
2013-05-29 05:31:00,64.6,62.4,29.80,SSE,163,3.0,4.0,93,0.00,,,0.15,meteohub,2013-05-29 09:31:00,
2013-05-29 05:36:00,64.6,62.4,29.80,South,187,3.0,4.0,93,0.00,,,0.15,meteohub,2013-05-29 09:36:00,
2013-05-29 05:41:00,64.6,62.4,29.79,SW,222,4.0,4.0,93,0.00,,,0.15,meteohub,2013-05-29 09:41:00,
2013-05-29 05:46:00,64.8,62.6,29.79,SSW,205,4.0,7.0,93,0.00,,,0.15,meteohub,2013-05-29 09:46:00,
2013-05-29 05:51:00,64.8,62.6,29.79,SSE,166,5.0,7.0,93,0.00,,,0.15,meteohub,2013-05-29 09:51:00,
2013-05-29 05:56:00,64.8,62.6,29.80,SSW,208,2.0,7.0,93,0.00,,,0.15,meteohub,2013-05-29 09:56:00,
2013-05-29 06:01:00,64.8,62.6,29.79,SSW,205,2.0,7.0,93,0.00,,,0.15,meteohub,2013-05-29 10:01:00,
2013-05-29 06:06:00,64.8,62.6,29.79,SE,134,3.0,7.0,93,0.00,,,0.15,meteohub,2013-05-29 10:06:00,
2013-05-29 06:11:00,64.8,62.6,29.79,SSE,155,2.0,7.0,93,0.00,,,0.15,meteohub,2013-05-29 10:11:00,
2013-05-29 06:16:00,64.6,62.4,29.80,SE,146,0.0,7.0,93,0.00,,,0.15,meteohub,2013-05-29 10:16:00,
2013-05-29 06:21:00,64.6,62.4,29.80,SSE,149,2.0,7.0,93,0.00,,,0.15,meteohub,2013-05-29 10:21:00,
2013-05-29 06:26:00,64.6,62.4,29.79,ESE,118,5.0,7.0,93,0.00,,,0.15,meteohub,2013-05-29 10:26:00,
2013-05-29 06:31:00,64.6,62.8,29.79,ENE,74,1.0,5.0,94,0.00,,,0.15,meteohub,2013-05-29 10:31:00,
2013-05-29 06:37:00,64.4,62.6,29.80,ENE,75,0.0,5.0,94,0.00,,,0.15,meteohub,2013-05-29 10:37:00,
2013-05-29 06:42:00,64.4,62.6,29.81,SW,229,0.0,5.0,94,0.00,,,0.15,meteohub,2013-05-29 10:42:00,
2013-05-29 06:47:00,64.2,62.4,29.80,SW,229,0.0,5.0,94,0.00,,,0.15,meteohub,2013-05-29 10:47:00,
2013-05-29 06:52:00,64.2,62.4,29.80,SSE,161,1.0,5.0,94,0.00,,,0.15,meteohub,2013-05-29 10:52:00,
2013-05-29 06:57:00,64.8,63.3,29.81,SW,231,5.0,5.0,95,0.00,,,0.15,meteohub,2013-05-29 10:57:00,
2013-05-29 07:02:00,64.9,63.5,29.82,WSW,242,4.0,5.0,95,0.00,,,0.15,meteohub,2013-05-29 11:02:00,
2013-05-29 07:07:00,65.5,64.0,29.81,WSW,240,7.0,7.0,95,0.00,,,0.15,meteohub,2013-05-29 11:07:00,
2013-05-29 07:12:00,65.8,64.4,29.82,WSW,245,3.0,5.0,95,0.00,,,0.15,meteohub,2013-05-29 11:12:00,
2013-05-29 07:17:00,66.0,64.6,29.82,WSW,245,5.0,5.0,95,0.00,,,0.15,meteohub,2013-05-29 11:17:00,
2013-05-29 07:22:00,66.4,64.9,29.82,WSW,257,4.0,5.0,95,0.00,,,0.15,meteohub,2013-05-29 11:22:00,
2013-05-29 07:27:00,66.7,65.3,29.83,SW,236,11.0,11.0,95,0.00,,,0.15,meteohub,2013-05-29 11:27:00,
2013-05-29 07:32:00,67.1,65.3,29.83,WSW,243,6.0,10.0,94,0.00,,,0.15,meteohub,2013-05-29 11:32:00,
2013-05-29 07:37:00,67.3,65.5,29.83,SW,234,8.0,10.0,94,0.00,,,0.15,meteohub,2013-05-29 11:37:00,
2013-05-29 07:42:00,67.5,65.7,29.83,SW,228,6.0,10.0,94,0.00,,,0.15,meteohub,2013-05-29 11:42:00,
2013-05-29 07:47:00,67.6,65.8,29.83,SW,234,4.0,10.0,94,0.00,,,0.15,meteohub,2013-05-29 11:47:00,
2013-05-29 07:53:00,67.6,65.8,29.83,WSW,242,8.0,10.0,94,0.00,,,0.15,meteohub,2013-05-29 11:53:00,
2013-05-29 07:58:00,67.8,65.7,29.82,SW,224,9.0,10.0,93,0.00,,,0.15,meteohub,2013-05-29 11:58:00,
2013-05-29 08:03:00,68.0,65.8,29.83,SW,229,11.0,11.0,93,0.00,,,0.15,meteohub,2013-05-29 12:03:00,
2013-05-29 08:08:00,68.2,65.8,29.84,WSW,242,15.0,15.0,92,0.00,,,0.15,meteohub,2013-05-29 12:08:00,
2013-05-29 08:13:00,68.4,66.0,29.84,WSW,254,8.0,10.0,92,0.00,,,0.15,meteohub,2013-05-29 12:13:00,
2013-05-29 08:18:00,68.4,65.7,29.85,SW,235,7.0,10.0,91,0.00,,,0.15,meteohub,2013-05-29 12:18:00,
2013-05-29 08:23:00,68.2,65.5,29.85,WSW,242,7.0,10.0,91,0.00,,,0.15,meteohub,2013-05-29 12:23:00,
2013-05-29 08:28:00,68.4,65.7,29.85,WSW,250,6.0,22.0,91,0.00,,,0.15,meteohub,2013-05-29 12:28:00,
2013-05-29 08:33:00,68.4,65.7,29.85,West,263,10.0,22.0,91,0.00,,,0.15,meteohub,2013-05-29 12:33:00,
2013-05-29 08:38:00,68.2,65.5,29.85,West,259,14.0,22.0,91,0.00,,,0.15,meteohub,2013-05-29 12:38:00,
2013-05-29 08:43:00,68.2,65.5,29.85,West,271,15.0,22.0,91,0.00,,,0.15,meteohub,2013-05-29 12:43:00,
2013-05-29 08:48:00,68.2,65.5,29.85,WSW,258,11.0,22.0,91,0.00,,,0.15,meteohub,2013-05-29 12:48:00,
2013-05-29 08:53:00,68.2,65.8,29.85,WSW,253,9.0,22.0,92,0.00,,,0.15,meteohub,2013-05-29 12:53:00,
2013-05-29 08:58:00,68.2,65.8,29.85,West,274,7.0,22.0,92,0.00,,,0.15,meteohub,2013-05-29 12:58:00,
2013-05-29 09:03:00,68.0,65.3,29.85,WSW,256,10.0,18.0,91,0.00,,,0.15,meteohub,2013-05-29 13:03:00,
2013-05-29 09:08:00,68.0,65.3,29.85,WSW,256,7.0,18.0,91,0.00,,,0.15,meteohub,2013-05-29 13:08:00,
2013-05-29 09:13:00,68.2,65.1,29.86,West,259,14.0,18.0,90,0.00,,,0.15,meteohub,2013-05-29 13:13:00,
2013-05-29 09:18:00,68.2,65.1,29.85,WNW,283,8.0,18.0,90,0.00,,,0.15,meteohub,2013-05-29 13:18:00,
2013-05-29 09:23:00,68.2,65.1,29.86,West,262,7.0,18.0,90,0.00,,,0.15,meteohub,2013-05-29 13:23:00,
2013-05-29 09:28:00,68.4,64.9,29.86,WSW,245,11.0,18.0,89,0.00,,,0.15,meteohub,2013-05-29 13:28:00,
2013-05-29 09:33:00,68.4,64.9,29.86,West,276,11.0,18.0,89,0.00,,,0.15,meteohub,2013-05-29 13:33:00,
2013-05-29 09:38:00,68.4,64.9,29.86,West,271,8.0,18.0,89,0.00,,,0.15,meteohub,2013-05-29 13:38:00,
2013-05-29 09:43:00,68.2,64.8,29.86,SW,229,6.0,18.0,89,0.00,,,0.15,meteohub,2013-05-29 13:43:00,
2013-05-29 09:48:00,68.2,64.8,29.85,West,264,6.0,18.0,89,0.00,,,0.15,meteohub,2013-05-29 13:48:00,
2013-05-29 09:54:00,68.4,64.9,29.84,West,260,6.0,18.0,89,0.00,,,0.15,meteohub,2013-05-29 13:54:00,
2013-05-29 09:59:00,68.4,64.9,29.83,West,270,4.0,18.0,89,0.00,,,0.15,meteohub,2013-05-29 13:59:00,
2013-05-29 10:04:00,68.4,65.3,29.83,WNW,293,3.0,18.0,90,0.00,,,0.15,meteohub,2013-05-29 14:04:00,
2013-05-29 10:09:00,68.5,65.5,29.84,WNW,293,2.0,18.0,90,0.00,,,0.15,meteohub,2013-05-29 14:09:00,
2013-05-29 10:14:00,68.5,65.1,29.84,WNW,299,7.0,18.0,89,0.00,,,0.15,meteohub,2013-05-29 14:14:00,
2013-05-29 10:19:00,68.7,65.3,29.84,NW,307,6.0,18.0,89,0.00,,,0.15,meteohub,2013-05-29 14:19:00,
2013-05-29 10:24:00,69.3,65.8,29.85,NW,310,4.0,8.0,89,0.00,,,0.15,meteohub,2013-05-29 14:24:00,
2013-05-29 10:29:00,69.3,65.5,29.85,WNW,293,5.0,8.0,88,0.00,,,0.15,meteohub,2013-05-29 14:29:00,
2013-05-29 10:34:00,69.4,65.7,29.85,NNW,338,6.0,8.0,88,0.00,,,0.15,meteohub,2013-05-29 14:34:00,
2013-05-29 10:39:00,69.3,65.5,29.85,NNW,332,2.0,8.0,88,0.00,,,0.15,meteohub,2013-05-29 14:39:00,
2013-05-29 10:44:00,69.6,66.2,29.85,West,281,3.0,8.0,89,0.00,,,0.15,meteohub,2013-05-29 14:44:00,
2013-05-29 10:49:00,70.2,66.4,29.87,WSW,250,4.0,8.0,88,0.00,,,0.15,meteohub,2013-05-29 14:49:00,
2013-05-29 10:54:00,70.3,66.6,29.88,WSW,242,10.0,10.0,88,0.00,,,0.15,meteohub,2013-05-29 14:54:00,
2013-05-29 10:59:00,70.5,66.7,29.88,West,277,7.0,8.0,88,0.00,,,0.15,meteohub,2013-05-29 14:59:00,
2013-05-29 11:04:00,70.3,66.6,29.89,West,263,9.0,12.0,88,0.00,,,0.15,meteohub,2013-05-29 15:04:00,
2013-05-29 11:09:00,70.2,66.4,29.89,West,267,5.0,12.0,88,0.00,,,0.15,meteohub,2013-05-29 15:09:00,
2013-05-29 11:15:00,70.2,66.7,29.89,WSW,256,12.0,12.0,89,0.00,,,0.15,meteohub,2013-05-29 15:15:00,
2013-05-29 11:20:00,70.0,66.2,29.89,WSW,253,5.0,12.0,88,0.00,,,0.15,meteohub,2013-05-29 15:20:00,
2013-05-29 11:25:00,70.0,66.6,29.90,WSW,256,7.0,12.0,89,0.00,,,0.15,meteohub,2013-05-29 15:25:00,
2013-05-29 11:30:00,70.2,66.7,29.90,WSW,245,6.0,12.0,89,0.00,,,0.15,meteohub,2013-05-29 15:30:00,
2013-05-29 11:35:00,69.6,65.8,29.90,West,264,10.0,12.0,88,0.00,,,0.15,meteohub,2013-05-29 15:35:00,
2013-05-29 11:40:00,69.4,65.7,29.91,WSW,242,14.0,14.0,88,0.00,,,0.15,meteohub,2013-05-29 15:40:00,
2013-05-29 11:45:00,69.1,65.7,29.91,WSW,238,10.0,16.0,89,0.00,,,0.15,meteohub,2013-05-29 15:45:00,
2013-05-29 11:50:00,69.1,65.3,29.91,WSW,245,14.0,16.0,88,0.00,,,0.15,meteohub,2013-05-29 15:50:00,
2013-05-29 11:55:00,69.1,65.3,29.91,WSW,245,14.0,16.0,88,0.00,,,0.15,meteohub,2013-05-29 15:55:00,
2013-05-29 12:00:00,68.4,64.4,29.92,SW,217,10.0,16.0,87,0.00,,,0.15,meteohub,2013-05-29 16:00:00,
2013-05-29 12:05:00,67.8,63.9,29.92,WSW,239,10.0,16.0,87,0.00,,,0.15,meteohub,2013-05-29 16:05:00,
2013-05-29 12:10:00,67.8,64.2,29.92,WSW,243,8.0,16.0,88,0.00,,,0.15,meteohub,2013-05-29 16:10:00,
2013-05-29 12:15:00,68.2,64.4,29.92,West,261,7.0,16.0,88,0.00,,,0.15,meteohub,2013-05-29 16:15:00,
2013-05-29 12:20:00,68.5,63.9,29.92,West,273,9.0,16.0,85,0.00,,,0.15,meteohub,2013-05-29 16:20:00,
2013-05-29 12:25:00,68.7,64.4,29.93,WSW,256,8.0,16.0,86,0.00,,,0.15,meteohub,2013-05-29 16:25:00,
2013-05-29 12:30:00,68.9,63.9,29.93,West,264,8.0,15.0,84,0.00,,,0.15,meteohub,2013-05-29 16:30:00,
2013-05-29 12:35:00,69.1,64.0,29.93,West,274,9.0,15.0,84,0.00,,,0.15,meteohub,2013-05-29 16:35:00,
2013-05-29 12:40:00,69.1,64.0,29.93,West,269,5.0,15.0,84,0.00,,,0.15,meteohub,2013-05-29 16:40:00,
2013-05-29 12:45:00,69.4,64.0,29.93,SW,236,6.0,15.0,83,0.00,,,0.15,meteohub,2013-05-29 16:45:00,
2013-05-29 12:50:00,69.8,64.0,29.93,WNW,295,7.0,15.0,82,0.00,,,0.15,meteohub,2013-05-29 16:50:00,
2013-05-29 12:56:00,70.2,64.8,29.93,West,278,8.0,15.0,83,0.00,,,0.15,meteohub,2013-05-29 16:56:00,
2013-05-29 13:01:00,70.5,64.8,29.93,WSW,245,11.0,15.0,82,0.00,,,0.15,meteohub,2013-05-29 17:01:00,
2013-05-29 13:06:00,70.7,64.6,29.93,SW,228,9.0,15.0,81,0.00,,,0.15,meteohub,2013-05-29 17:06:00,
2013-05-29 13:11:00,70.9,65.1,29.93,WSW,241,9.0,15.0,82,0.00,,,0.15,meteohub,2013-05-29 17:11:00,
2013-05-29 13:16:00,71.1,64.9,29.92,West,262,7.0,15.0,81,0.00,,,0.15,meteohub,2013-05-29 17:16:00,
2013-05-29 13:21:00,71.4,64.9,29.93,West,264,7.0,13.0,80,0.00,,,0.15,meteohub,2013-05-29 17:21:00,
2013-05-29 13:26:00,71.6,65.5,29.92,WSW,248,5.0,13.0,81,0.00,,,0.15,meteohub,2013-05-29 17:26:00,
2013-05-29 13:31:00,72.0,65.8,29.92,West,267,7.0,13.0,81,0.00,,,0.15,meteohub,2013-05-29 17:31:00,
2013-05-29 13:36:00,72.5,66.0,29.92,WSW,248,9.0,13.0,80,0.00,,,0.15,meteohub,2013-05-29 17:36:00,
2013-05-29 13:41:00,72.7,65.8,29.92,SSW,197,4.0,13.0,79,0.00,,,0.15,meteohub,2013-05-29 17:41:00,
2013-05-29 13:46:00,73.2,66.7,29.92,WSW,248,4.0,13.0,80,0.00,,,0.15,meteohub,2013-05-29 17:46:00,
2013-05-29 13:51:00,73.9,66.6,29.92,West,274,4.0,13.0,78,0.00,,,0.15,meteohub,2013-05-29 17:51:00,
2013-05-29 13:56:00,74.1,66.4,29.92,WSW,252,5.0,13.0,77,0.00,,,0.15,meteohub,2013-05-29 17:56:00,
2013-05-29 14:01:00,74.7,66.9,29.91,SW,231,7.0,13.0,77,0.00,,,0.15,meteohub,2013-05-29 18:01:00,
2013-05-29 14:06:00,74.8,67.5,29.92,SW,229,7.0,9.0,78,0.00,,,0.15,meteohub,2013-05-29 18:06:00,
2013-05-29 14:11:00,75.0,67.3,29.91,SW,226,8.0,9.0,77,0.00,,,0.15,meteohub,2013-05-29 18:11:00,
2013-05-29 14:16:00,75.4,66.9,29.92,SSW,209,7.0,9.0,75,0.00,,,0.15,meteohub,2013-05-29 18:16:00,
2013-05-29 14:21:00,75.6,67.5,29.92,WSW,237,6.0,9.0,76,0.00,,,0.15,meteohub,2013-05-29 18:21:00,
2013-05-29 14:26:00,75.9,67.8,29.91,SSW,212,6.0,9.0,76,0.00,,,0.15,meteohub,2013-05-29 18:26:00,
2013-05-29 14:31:00,75.9,66.6,29.91,SSW,200,6.0,9.0,73,0.00,,,0.15,meteohub,2013-05-29 18:31:00,
2013-05-29 14:37:00,76.3,66.2,29.91,SW,221,10.0,10.0,71,0.00,,,0.15,meteohub,2013-05-29 18:37:00,
2013-05-29 14:42:00,76.5,67.1,29.91,SW,232,8.0,9.0,73,0.00,,,0.15,meteohub,2013-05-29 18:42:00,
2013-05-29 14:47:00,76.8,67.1,29.91,SW,231,5.0,14.0,72,0.00,,,0.15,meteohub,2013-05-29 18:47:00,
2013-05-29 14:52:00,77.0,67.3,29.91,WSW,255,5.0,14.0,72,0.00,,,0.15,meteohub,2013-05-29 18:52:00,
2013-05-29 14:57:00,76.8,67.1,29.91,SW,235,5.0,14.0,72,0.00,,,0.15,meteohub,2013-05-29 18:57:00,
2013-05-29 15:02:00,76.8,66.2,29.91,SSW,211,9.0,14.0,70,0.00,,,0.15,meteohub,2013-05-29 19:02:00,
2013-05-29 15:07:00,76.6,66.2,29.91,WSW,256,6.0,14.0,70,0.00,,,0.15,meteohub,2013-05-29 19:07:00,
2013-05-29 15:12:00,76.6,65.7,29.91,SW,215,5.0,14.0,69,0.00,,,0.15,meteohub,2013-05-29 19:12:00,
2013-05-29 15:17:00,76.6,66.2,29.91,WSW,242,7.0,14.0,70,0.00,,,0.15,meteohub,2013-05-29 19:17:00,
2013-05-29 15:22:00,76.6,66.2,29.91,WSW,245,8.0,14.0,70,0.00,,,0.15,meteohub,2013-05-29 19:22:00,
2013-05-29 15:27:00,76.6,66.6,29.91,WSW,248,8.0,12.0,71,0.00,,,0.15,meteohub,2013-05-29 19:27:00,
2013-05-29 15:32:00,76.5,65.1,29.91,SW,229,9.0,12.0,68,0.00,,,0.15,meteohub,2013-05-29 19:32:00,
2013-05-29 15:37:00,76.3,65.8,29.91,WSW,250,3.0,12.0,70,0.00,,,0.15,meteohub,2013-05-29 19:37:00,
2013-05-29 15:42:00,76.5,65.1,29.92,WSW,250,5.0,12.0,68,0.00,,,0.15,meteohub,2013-05-29 19:42:00,
2013-05-29 15:47:00,77.0,64.8,29.92,SW,214,10.0,12.0,66,0.00,,,0.15,meteohub,2013-05-29 19:47:00,
2013-05-29 15:52:00,77.2,64.6,29.91,SSW,203,6.0,12.0,65,0.00,,,0.15,meteohub,2013-05-29 19:52:00,
2013-05-29 15:57:00,77.5,64.4,29.91,SW,215,4.0,13.0,64,0.00,,,0.15,meteohub,2013-05-29 19:57:00,
2013-05-29 16:02:00,77.2,64.6,29.91,SSW,199,4.0,13.0,65,0.00,,,0.15,meteohub,2013-05-29 20:02:00,
2013-05-29 16:08:00,77.2,64.9,29.91,SW,218,3.0,13.0,66,0.00,,,0.15,meteohub,2013-05-29 20:08:00,
2013-05-29 16:13:00,77.5,64.4,29.91,WSW,238,4.0,13.0,64,0.00,,,0.15,meteohub,2013-05-29 20:13:00,
2013-05-29 16:18:00,77.7,64.0,29.91,SSW,208,3.0,13.0,63,0.00,,,0.15,meteohub,2013-05-29 20:18:00,
2013-05-29 16:23:00,78.3,66.4,29.91,West,281,3.0,9.0,67,0.00,,,0.15,meteohub,2013-05-29 20:23:00,
2013-05-29 16:28:00,78.4,64.8,29.91,WSW,239,11.0,11.0,63,0.00,,,0.15,meteohub,2013-05-29 20:28:00,
2013-05-29 16:33:00,78.4,63.9,29.91,SW,214,6.0,9.0,61,0.00,,,0.15,meteohub,2013-05-29 20:33:00,
2013-05-29 16:38:00,78.6,64.0,29.91,SSW,200,9.0,9.0,61,0.00,,,0.15,meteohub,2013-05-29 20:38:00,
2013-05-29 16:43:00,78.6,64.0,29.91,West,259,6.0,9.0,61,0.00,,,0.15,meteohub,2013-05-29 20:43:00,
2013-05-29 16:48:00,78.6,64.0,29.91,SW,221,5.0,13.0,61,0.00,,,0.15,meteohub,2013-05-29 20:48:00,
2013-05-29 16:53:00,78.4,63.9,29.91,SW,226,8.0,13.0,61,0.00,,,0.15,meteohub,2013-05-29 20:53:00,
2013-05-29 16:58:00,78.3,63.7,29.91,WSW,249,3.0,13.0,61,0.00,,,0.15,meteohub,2013-05-29 20:58:00,
2013-05-29 17:03:00,78.3,64.2,29.90,WNW,285,2.0,13.0,62,0.00,,,0.15,meteohub,2013-05-29 21:03:00,
2013-05-29 17:08:00,78.6,64.6,29.90,WSW,248,3.0,13.0,62,0.00,,,0.15,meteohub,2013-05-29 21:08:00,
2013-05-29 17:13:00,78.8,65.7,29.90,South,174,4.0,9.0,64,0.00,,,0.15,meteohub,2013-05-29 21:13:00,
2013-05-29 17:18:00,79.2,64.9,29.90,West,261,2.0,9.0,62,0.00,,,0.15,meteohub,2013-05-29 21:18:00,
2013-05-29 17:24:00,79.7,65.5,29.90,South,186,3.0,9.0,62,0.00,,,0.15,meteohub,2013-05-29 21:24:00,
2013-05-29 17:29:00,79.3,65.7,29.90,SSW,210,5.0,9.0,63,0.00,,,0.15,meteohub,2013-05-29 21:29:00,
2013-05-29 17:34:00,78.8,65.7,29.90,SW,214,3.0,8.0,64,0.00,,,0.15,meteohub,2013-05-29 21:34:00,
2013-05-29 17:39:00,79.0,65.8,29.90,SW,232,4.0,8.0,64,0.00,,,0.15,meteohub,2013-05-29 21:39:00,
2013-05-29 17:44:00,79.0,65.8,29.90,SW,228,3.0,8.0,64,0.00,,,0.15,meteohub,2013-05-29 21:44:00,
2013-05-29 17:49:00,78.6,66.4,29.90,SSW,204,7.0,8.0,66,0.00,,,0.15,meteohub,2013-05-29 21:49:00,
2013-05-29 17:54:00,78.3,66.4,29.90,South,181,7.0,8.0,67,0.00,,,0.15,meteohub,2013-05-29 21:54:00,
2013-05-29 17:59:00,77.9,66.6,29.90,SSE,148,3.0,10.0,68,0.00,,,0.15,meteohub,2013-05-29 21:59:00,
2013-05-29 18:04:00,77.7,66.4,29.90,SSW,195,5.0,10.0,68,0.00,,,0.15,meteohub,2013-05-29 22:04:00,
2013-05-29 18:09:00,77.4,66.0,29.90,South,169,8.0,10.0,68,0.00,,,0.15,meteohub,2013-05-29 22:09:00,
2013-05-29 18:14:00,77.4,66.4,29.90,SSE,161,7.0,10.0,69,0.00,,,0.15,meteohub,2013-05-29 22:14:00,
2013-05-29 18:19:00,77.7,67.6,29.90,SSW,201,8.0,10.0,71,0.00,,,0.15,meteohub,2013-05-29 22:19:00,
2013-05-29 18:24:00,77.5,66.6,29.90,SSW,193,7.0,10.0,69,0.00,,,0.15,meteohub,2013-05-29 22:24:00,
2013-05-29 18:29:00,77.5,66.9,29.89,SW,221,7.0,11.0,70,0.00,,,0.15,meteohub,2013-05-29 22:29:00,
2013-05-29 18:34:00,77.7,67.1,29.90,South,181,7.0,11.0,70,0.00,,,0.15,meteohub,2013-05-29 22:34:00,
2013-05-29 18:39:00,78.1,67.5,29.89,SW,224,6.0,11.0,70,0.00,,,0.15,meteohub,2013-05-29 22:39:00,
2013-05-29 18:44:00,78.3,67.6,29.89,SSW,205,6.0,11.0,70,0.00,,,0.15,meteohub,2013-05-29 22:44:00,
2013-05-29 18:49:00,78.4,67.5,29.89,SSW,212,9.0,11.0,69,0.00,,,0.15,meteohub,2013-05-29 22:49:00,
2013-05-29 18:55:00,78.4,67.8,29.88,SSW,197,4.0,11.0,70,0.00,,,0.15,meteohub,2013-05-29 22:55:00,
2013-05-29 19:00:00,78.3,67.3,29.88,SSW,198,5.0,11.0,69,0.00,,,0.15,meteohub,2013-05-29 23:00:00,
2013-05-29 19:05:00,78.3,67.6,29.88,SSW,203,7.0,11.0,70,0.00,,,0.15,meteohub,2013-05-29 23:05:00,
2013-05-29 19:10:00,78.3,67.6,29.88,SW,224,9.0,11.0,70,0.00,,,0.15,meteohub,2013-05-29 23:10:00,
2013-05-29 19:15:00,77.9,67.3,29.88,South,169,5.0,11.0,70,0.00,,,0.15,meteohub,2013-05-29 23:15:00,
2013-05-29 19:20:00,77.7,67.1,29.88,SSE,155,5.0,11.0,70,0.00,,,0.15,meteohub,2013-05-29 23:20:00,
2013-05-29 19:25:00,77.9,67.8,29.88,SSW,194,5.0,11.0,71,0.00,,,0.15,meteohub,2013-05-29 23:25:00,
2013-05-29 19:30:00,77.7,67.6,29.88,SSE,164,6.0,11.0,71,0.00,,,0.15,meteohub,2013-05-29 23:30:00,
2013-05-29 19:35:00,77.7,67.6,29.88,South,175,5.0,11.0,71,0.00,,,0.15,meteohub,2013-05-29 23:35:00,
2013-05-29 19:40:00,77.7,68.0,29.88,SSE,155,2.0,8.0,72,0.00,,,0.15,meteohub,2013-05-29 23:40:00,
2013-05-29 19:45:00,77.7,68.0,29.87,SSE,160,3.0,8.0,72,0.00,,,0.15,meteohub,2013-05-29 23:45:00,
2013-05-29 19:50:00,77.7,68.0,29.88,SSW,195,3.0,8.0,72,0.00,,,0.15,meteohub,2013-05-29 23:50:00,
2013-05-29 19:55:00,77.5,67.8,29.88,SSE,160,5.0,8.0,72,0.00,,,0.15,meteohub,2013-05-29 23:55:00,
2013-05-29 20:00:00,77.5,67.8,29.88,SSE,158,5.0,7.0,72,0.00,,,0.15,meteohub,2013-05-30 00:00:00,
2013-05-29 20:05:00,77.4,68.0,29.88,SE,129,5.0,7.0,73,0.00,,,0.15,meteohub,2013-05-30 00:05:00,
2013-05-29 20:10:00,77.2,67.8,29.87,SE,141,6.0,7.0,73,0.00,,,0.15,meteohub,2013-05-30 00:10:00,
2013-05-29 20:15:00,76.8,67.5,29.88,SE,137,3.0,7.0,73,0.00,,,0.15,meteohub,2013-05-30 00:15:00,
2013-05-29 20:20:00,76.6,67.6,29.87,ESE,122,3.0,7.0,74,0.00,,,0.15,meteohub,2013-05-30 00:20:00,
2013-05-29 20:26:00,76.5,68.0,29.87,SE,125,6.0,7.0,75,0.00,,,0.15,meteohub,2013-05-30 00:26:00,
2013-05-29 20:31:00,76.3,68.2,29.87,SE,130,3.0,7.0,76,0.00,,,0.15,meteohub,2013-05-30 00:31:00,
2013-05-29 20:36:00,75.9,67.8,29.88,SE,138,3.0,7.0,76,0.00,,,0.15,meteohub,2013-05-30 00:36:00,
2013-05-29 20:41:00,75.7,68.0,29.87,ESE,123,4.0,7.0,77,0.00,,,0.15,meteohub,2013-05-30 00:41:00,
2013-05-29 20:46:00,75.4,67.6,29.88,SE,129,3.0,7.0,77,0.00,,,0.15,meteohub,2013-05-30 00:46:00,
2013-05-29 20:51:00,74.8,67.5,29.88,SE,131,3.0,6.0,78,0.00,,,0.15,meteohub,2013-05-30 00:51:00,
2013-05-29 20:56:00,74.5,67.5,29.88,SE,129,2.0,6.0,79,0.00,,,0.15,meteohub,2013-05-30 00:56:00,
2013-05-29 21:01:00,74.1,67.6,29.87,ESE,115,1.0,6.0,80,0.00,,,0.15,meteohub,2013-05-30 01:01:00,
2013-05-29 21:06:00,73.8,67.6,29.87,SE,124,2.0,6.0,81,0.00,,,0.15,meteohub,2013-05-30 01:06:00,
2013-05-29 21:11:00,73.4,67.6,29.88,ESE,122,1.0,6.0,82,0.00,,,0.15,meteohub,2013-05-30 01:11:00,
2013-05-29 21:16:00,73.0,67.6,29.88,ESE,121,1.0,6.0,83,0.00,,,0.15,meteohub,2013-05-30 01:16:00,
2013-05-29 21:21:00,72.9,67.5,29.88,SE,124,2.0,2.0,83,0.00,,,0.15,meteohub,2013-05-30 01:21:00,
2013-05-29 21:26:00,72.5,67.5,29.88,ESE,122,3.0,3.0,84,0.00,,,0.15,meteohub,2013-05-30 01:26:00,
2013-05-29 21:31:00,72.1,67.1,29.88,ESE,119,3.0,3.0,84,0.00,,,0.15,meteohub,2013-05-30 01:31:00,
2013-05-29 21:36:00,72.0,67.3,29.88,ESE,123,3.0,3.0,85,0.00,,,0.15,meteohub,2013-05-30 01:36:00,
2013-05-29 21:41:00,72.0,67.3,29.88,ESE,120,3.0,3.0,85,0.00,,,0.15,meteohub,2013-05-30 01:41:00,
2013-05-29 21:47:00,71.8,67.3,29.88,ESE,119,3.0,4.0,86,0.00,,,0.15,meteohub,2013-05-30 01:47:00,
2013-05-29 21:52:00,71.6,67.1,29.88,ESE,119,4.0,4.0,86,0.00,,,0.15,meteohub,2013-05-30 01:52:00,
2013-05-29 21:57:00,71.4,67.1,29.88,ESE,122,3.0,4.0,86,0.00,,,0.15,meteohub,2013-05-30 01:57:00,
2013-05-29 22:02:00,71.2,66.9,29.89,ESE,116,3.0,4.0,86,0.00,,,0.15,meteohub,2013-05-30 02:02:00,
2013-05-29 22:07:00,71.2,67.1,29.89,ESE,116,3.0,4.0,87,0.00,,,0.15,meteohub,2013-05-30 02:07:00,
2013-05-29 22:12:00,71.2,67.1,29.88,ESE,113,3.0,5.0,87,0.00,,,0.15,meteohub,2013-05-30 02:12:00,
2013-05-29 22:17:00,71.2,67.1,29.88,SE,131,2.0,5.0,87,0.00,,,0.15,meteohub,2013-05-30 02:17:00,
2013-05-29 22:22:00,71.1,66.9,29.88,ESE,116,5.0,5.0,87,0.00,,,0.15,meteohub,2013-05-30 02:22:00,
2013-05-29 22:27:00,71.1,66.9,29.88,ESE,122,5.0,5.0,87,0.00,,,0.15,meteohub,2013-05-30 02:27:00,
2013-05-29 22:32:00,71.1,66.9,29.89,SE,127,4.0,5.0,87,0.00,,,0.15,meteohub,2013-05-30 02:32:00,
2013-05-29 22:37:00,71.1,66.9,29.89,SE,126,5.0,7.0,87,0.00,,,0.15,meteohub,2013-05-30 02:37:00,
2013-05-29 22:42:00,71.1,66.9,29.88,ESE,121,5.0,7.0,87,0.00,,,0.15,meteohub,2013-05-30 02:42:00,
2013-05-29 22:47:00,70.9,67.1,29.88,ESE,118,6.0,7.0,88,0.00,,,0.15,meteohub,2013-05-30 02:47:00,
2013-05-29 22:52:00,70.9,67.1,29.88,ESE,115,5.0,7.0,88,0.00,,,0.15,meteohub,2013-05-30 02:52:00,
2013-05-29 22:57:00,70.9,67.1,29.88,SE,126,4.0,7.0,88,0.00,,,0.15,meteohub,2013-05-30 02:57:00,
2013-05-29 23:02:00,71.1,67.3,29.88,SE,133,5.0,7.0,88,0.00,,,0.15,meteohub,2013-05-30 03:02:00,
2013-05-29 23:07:00,71.2,67.5,29.88,ESE,117,8.0,8.0,88,0.00,,,0.15,meteohub,2013-05-30 03:07:00,
2013-05-29 23:13:00,71.4,67.3,29.88,SE,138,7.0,7.0,87,0.00,,,0.15,meteohub,2013-05-30 03:13:00,
2013-05-29 23:18:00,71.8,67.6,29.88,SE,127,7.0,7.0,87,0.00,,,0.15,meteohub,2013-05-30 03:18:00,
2013-05-29 23:23:00,72.0,67.8,29.88,SE,132,7.0,9.0,87,0.00,,,0.15,meteohub,2013-05-30 03:23:00,
2013-05-29 23:28:00,72.0,67.8,29.88,SE,128,5.0,9.0,87,0.00,,,0.15,meteohub,2013-05-30 03:28:00,
2013-05-29 23:33:00,72.0,67.8,29.88,SE,145,5.0,9.0,87,0.00,,,0.15,meteohub,2013-05-30 03:33:00,
2013-05-29 23:38:00,72.0,67.8,29.88,ESE,116,8.0,9.0,87,0.00,,,0.15,meteohub,2013-05-30 03:38:00,
2013-05-29 23:43:00,72.0,67.8,29.88,SE,136,5.0,9.0,87,0.00,,,0.15,meteohub,2013-05-30 03:43:00,
2013-05-29 23:48:00,72.0,67.8,29.88,SE,142,6.0,9.0,87,0.00,,,0.15,meteohub,2013-05-30 03:48:00,
2013-05-29 23:53:00,72.0,67.8,29.88,SE,126,4.0,9.0,87,0.00,,,0.15,meteohub,2013-05-30 03:53:00,
2013-05-29 23:58:00,72.0,67.8,29.88,SE,139,5.0,9.0,87,0.00,,,0.15,meteohub,2013-05-30 03:58:00,